Location: Baggettsville
(36.4767°N, 86.7303°W)
Time: 13:41:21
(UTC+00:00)

Envisat - Pass Details

Date: 26 September 2021
Orbit: 764 x 766 km, 98.2° (Epoch: 23 October)

Event Time Altitude Azimuth Distance (km) Brightness Sun altitude
Rises 10:03:15 0° 26° (NNE) 3,236 6.8 -19.8°
Reaches altitude 10° 10:05:55 10° 39° (NE) 2,305 6.2 -19.2°
Maximum altitude 10:10:09 26° 95° (E) 1,459 5.2 -18.4°
Drops below altitude 10° 10:14:22 10° 152° (SSE) 2,291 5.7 -17.6°
Sets 10:17:00 0° 165° (SSE) 3,213 6.3 -17.1°
